Newport, AR

11:28 PM CDT on April 19, 2018 (GMT -0500)
Newport

Weather History for KM19 - November, 2013

Change the Weather History Date:

Wednesday, November 6, 2013

  Actual Average (KBVX) Record (KBVX)
Temperature  
Mean Temperature 53 °F -  
Max Temperature 61 °F 62 °F 80 °F (1999)
Min Temperature 43 °F 38 °F 19 °F (1967)
Degree Days  
Heating Degree Days 12    
Growing Degree Days 3 (Base 50)    
Moisture  
Dew Point 52 °F    
Average Humidity 91    
Maximum Humidity 100    
Minimum Humidity 71    
Precipitation  
Precipitation 0.26 in - - ()
Sea Level Pressure  
Sea Level Pressure 30.12 in    
Wind  
Wind Speed 13 mph (SW)    
Max Wind Speed 21 mph    
Max Gust Speed 39 mph    
Visibility 9 miles    
Events Rain    
Averages and records for this station are not official NWS values.
T = Trace of Precipitation, MM = Missing Value Source: NWS Daily Summary

Daily Weather History Graph

Daily Weather History Graph

Search for Another Location

Airport or City:

Trip Planner

Search our weather history database for the weather conditions in past years. The results will help you decide how hot, cold, wet, or windy it might be!

Date:

Astronomy

Nov. 06, 2013 Rise Set
Actual Time 6:31 AM CST 5:04 PM CST
Civil Twilight 6:05 AM CST 5:31 PM CST
Nautical Twilight 5:34 AM CST 6:01 PM CST
Astronomical Twilight 5:04 AM CST 6:31 PM CST
Moon 9:44 AM CST (11/6) 8:11 PM CST (11/6)
Length of Visible Light 11h 26m
Length of Day
10h 32m
Waxing Crescent, 14% of the Moon is Illuminated
Nov 6
Waxing Crescent
Nov 9
First Quarter
Nov 17
Full
Nov 25
Last Quarter
Dec 2
New

Hourly Weather History & Observations

Time (CST) Temp. Windchill Dew Point Humidity Pressure Visibility Wind Dir Wind Speed Gust Speed Precip Events Conditions
12:56 AM 59.9 °F - 52.9 °F 78% 30.09 in 10.0 mi South 9.2 mph - N/A   Mostly Cloudy
1:56 AM 59.9 °F - 52.0 °F 75% 30.06 in 10.0 mi SSE 9.2 mph - N/A   Overcast
2:56 AM 61.0 °F - 52.0 °F 72% 30.06 in 10.0 mi South 17.3 mph - N/A   Overcast
3:56 AM 59.0 °F - 54.0 °F 83% 30.05 in 10.0 mi South 19.6 mph - 0.00 in Rain Light Rain
4:56 AM 56.8 °F - 54.0 °F 90% 30.04 in 10.0 mi South 18.4 mph - 0.02 in Rain Light Rain
5:56 AM 55.9 °F - 54.9 °F 96% 30.03 in 10.0 mi South 18.4 mph - 0.04 in Rain Light Rain
6:56 AM 56.8 °F - 54.9 °F 93% 30.04 in 8.0 mi North - - 0.02 in Rain Light Rain
7:32 AM 57.2 °F - 55.4 °F 94% 30.05 in 10.0 mi South 15.0 mph - 0.00 in   Mostly Cloudy
7:39 AM 57.2 °F - 55.4 °F 94% 30.05 in 5.0 mi South 12.7 mph 27.6 mph 0.03 in Rain Light Rain
7:56 AM 56.8 °F - 55.9 °F 97% 30.05 in 10.0 mi SE 6.9 mph 39.1 mph 0.03 in   Overcast
8:27 AM 57.2 °F - 57.2 °F 100% 30.06 in 10.0 mi SSE 13.8 mph - 0.00 in   Overcast
8:56 AM 57.9 °F - 57.9 °F 100% 30.09 in 10.0 mi North - - 0.00 in   Overcast
9:37 AM 59.0 °F - 57.2 °F 94% 30.10 in 2.0 mi North - - 0.08 in Rain Rain
9:49 AM 59.0 °F - 59.0 °F 100% 30.10 in 3.0 mi North - - 0.10 in Rain Light Rain
9:56 AM 59.0 °F - 59.0 °F 100% 30.09 in 3.0 mi South 4.6 mph - 0.11 in Rain Light Rain
10:07 AM 59.0 °F - 59.0 °F 100% 30.07 in 6.0 mi SSE 11.5 mph - 0.00 in Rain Light Rain
10:34 AM 60.8 °F - 60.8 °F 100% 30.06 in 10.0 mi South 12.7 mph - 0.00 in   Overcast
10:56 AM 59.9 °F - 59.9 °F 100% 30.06 in 10.0 mi SE 8.1 mph - 0.00 in   Overcast
11:12 AM 60.8 °F - 60.8 °F 100% 30.06 in 10.0 mi South 11.5 mph - N/A   Overcast
11:27 AM 60.8 °F - 60.8 °F 100% 30.07 in 10.0 mi South 8.1 mph - N/A   Overcast
11:56 AM 59.9 °F - 59.9 °F 100% 30.06 in 10.0 mi SSW 9.2 mph - N/A   Overcast
12:56 PM 59.9 °F - 59.9 °F 100% 30.05 in 9.0 mi North - - 0.00 in Rain Light Rain
1:56 PM 54.9 °F - 54.9 °F 100% 30.08 in 3.0 mi NNW 19.6 mph 25.3 mph 0.02 in Rain Light Rain
1:58 PM 55.4 °F - 55.4 °F 100% 30.08 in 4.0 mi NW 18.4 mph 25.3 mph 0.00 in Rain Light Rain
2:48 PM 53.6 °F - 51.8 °F 94% 30.10 in 10.0 mi NNW 15.0 mph 26.5 mph 0.01 in Rain Light Rain
2:56 PM 52.9 °F - 50.9 °F 93% 30.10 in 10.0 mi NNW 15.0 mph 19.6 mph 0.01 in Rain Light Rain
3:56 PM 50.0 °F - 47.8 °F 92% 30.13 in 10.0 mi NW 15.0 mph - 0.01 in Rain Light Rain
4:20 PM 48.2 °F - 46.4 °F 93% 30.15 in 10.0 mi NW 17.3 mph - 0.00 in Rain Light Rain
4:44 PM 48.2 °F - 46.4 °F 93% 30.16 in 10.0 mi NW 17.3 mph - 0.00 in Rain Light Rain
4:56 PM 48.9 °F - 45.9 °F 89% 30.17 in 10.0 mi NNW 16.1 mph - 0.00 in Rain Light Rain
5:56 PM 47.8 °F - 43.0 °F 83% 30.19 in 10.0 mi NNW 19.6 mph 25.3 mph 0.00 in   Overcast
6:56 PM 45.9 °F 38.0 °F 41.0 °F 83% 30.22 in 10.0 mi NNW 20.7 mph 27.6 mph 0.00 in   Overcast
7:56 PM 45.0 °F 37.9 °F 39.9 °F 82% 30.25 in 10.0 mi North 16.1 mph 24.2 mph N/A   Overcast
8:56 PM 45.0 °F 38.5 °F 38.8 °F 79% 30.28 in 10.0 mi NNW 13.8 mph - N/A   Overcast
9:56 PM 45.0 °F 36.9 °F 37.9 °F 76% 30.30 in 10.0 mi North 20.7 mph - N/A   Overcast
10:56 PM 45.0 °F 38.9 °F 37.9 °F 76% 30.32 in 10.0 mi NNW 12.7 mph - N/A   Overcast
11:56 PM 43.9 °F 36.8 °F 34.9 °F 71% 30.34 in 10.0 mi North 15.0 mph - N/A   Overcast